{"data":{"norad_id":61881,"epoch":"2026-05-24T23:01:29.637984Z","epoch_age_seconds":75624,"freshness":"FRESH","line1":"1 61881U 24204H   26144.95937081  .00000244  00000+0  68660-5 0  9995","line2":"2 61881  53.1579 340.2778 0000893  52.4084 307.7015 15.69707540 88890","mean_motion":15.6970754,"eccentricity":8.93e-5,"inclination_deg":53.1579,"raan_deg":340.2778,"arg_perigee_deg":52.4084,"mean_anomaly_deg":307.7015,"bstar":6.866e-6,"rev_number":8889,"period_min":91.736833983737,"perigee_km":359.13209814579,"apogee_km":360.33548186888,"semimajor_km":6737.8707900073,"source":"CELESTRAK","updated_at":"2026-05-25T13:38:19.475938Z"}}